Location: Los Gatos B&B
(42.6926°N, 77.0646°W)
Time: 18:40:01
(UTC-04:00)

Cosmos 2263 Rocket - Visible Passes

Search period start: 30 July 2016 00:00
Search period end: 09 August 2016 00:00
Orbit: 824 x 848 km, 71.0° (Epoch: 29 July)

Date Brightness Start Highest point End Pass type
(mag) Time Alt. Az. Time Alt. Az. Time Alt. Az.
30 Jul 5.4 02:59:09 10° NNE 03:00:37 11° NE 03:02:04 10° NE visible
30 Jul 2.9 04:40:18 10° NNW 04:45:49 58° ENE 04:51:17 10° SE visible
30 Jul 5.3 21:18:13 10° W 21:21:24 15° NW 21:24:36 10° N visible
31 Jul 5.5 02:43:12 10° NNE 02:43:49 10° NE 02:44:25 10° NE visible
31 Jul 3.0 04:23:38 10° NNW 04:29:07 53° ENE 04:34:32 10° SE visible
31 Jul 5.3 21:01:12 10° W 21:04:38 16° NW 21:08:04 10° N visible
01 Aug 3.1 04:06:58 10° NNW 04:12:24 49° ENE 04:17:46 10° SE visible
02 Aug 3.3 03:50:19 10° NNW 03:55:41 45° ENE 04:01:00 10° SE visible
03 Aug 3.4 03:33:40 10° NNW 03:38:58 42° ENE 03:44:12 10° SE visible
03 Aug 3.0 05:17:59 10° NW 05:22:40 28° WSW 05:27:20 10° SSW visible
04 Aug 3.5 03:17:01 10° N 03:22:15 39° ENE 03:27:25 10° SE visible
04 Aug 2.9 05:01:12 10° NW 05:06:01 31° WSW 05:10:49 10° SSW visible
05 Aug 3.6 03:00:23 10° N 03:05:31 36° ENE 03:10:37 10° ESE visible
05 Aug 2.8 04:44:25 10° NW 04:49:22 33° WSW 04:54:17 10° SSW visible
06 Aug 3.7 02:43:45 10° N 02:48:48 34° NE 02:53:48 10° ESE visible
06 Aug 2.7 04:27:39 10° NW 04:32:43 36° WSW 04:36:37 16° SSW visible
07 Aug 3.7 02:27:06 10° N 02:32:04 31° NE 02:36:42 11° ESE visible
07 Aug 2.6 04:10:54 10° NW 04:16:03 40° WSW 04:18:15 28° SSW visible
08 Aug 3.8 02:10:29 10° N 02:15:20 29° NE 02:18:50 16° ESE visible
08 Aug 2.5 03:54:09 10° NW 03:59:24 43° WSW 04:00:25 39° SW visible
